Location: Newark
(51.1667°N, 71.4333°E)
Time: 14:53:19
(UTC+00:00)

Tiangong - Visible Passes

Search period start: 23 October 2021 00:00
Search period end: 02 November 2021 00:00
Orbit: 381 x 390 km, 41.5° (Epoch: 23 October)

Date Brightness Start Highest point End Pass type
(mag) Time Alt. Az. Time Alt. Az. Time Alt. Az.
23 Oct 3.5 13:08:25 10° SSW 13:10:13 14° S 13:12:02 10° SE visible
24 Oct 3.5 13:45:22 10° SW 13:47:13 14° S 13:48:04 13° SSE visible
25 Oct 3.6 12:46:09 10° SW 12:48:05 15° S 12:50:00 10° SE visible
25 Oct 4.0 14:23:26 10° SSW 14:23:44 10° SSW 14:23:44 10° SSW visible
26 Oct 3.8 13:23:30 10° SW 13:25:02 13° SSW 13:26:34 10° SSE visible
28 Oct 4.1 13:02:09 10° SSW 13:02:46 10° SSW 13:03:22 10° S visible
